Regional Weather Roundup
Issued by NWS Binghamton, NY

Home | Current Version | Previous Version | Text Only | Print | Product List | Glossary On
Versions: 1 2 3 4 5 6 7 8 9 10 11 12 13 14 15 16 17 18 19 20 21 22 23 24 25 26 27 28 29 30 31 32 33 34 35 36 37 38 39 40 41 42 43 44 45 46 47 48 49 50
000
ASUS41 KBGM 031310
RWRBGM
RWRBGM
BINGHAMTON REGIONAL WEATHER ROUNDUP
NATIONAL WEATHER SERVICE BINGHAMTON NY
900 AM EDT FRI JUL 03 2015

Note: "fair" indicates few or no clouds below 12,000 feet with no
significant weather and/or obstructions to visibility.

* = Station(s) that does not report precipitation, such as rain,
snow, etc, also no thunder or fog.

!NYZ009-015>018-022>025-036-037-044>046-055>057-062-031400
...CENTRAL NEW YORK...

CITY           SKY/WX    TMP DP  RH WIND       PRES   REMARKS
BINGHAMTON     SUNNY     59  48  67 VRB3      30.04R
CORTLAND       FAIR      57  52  82 CALM      30.05R
DANSVILLE      SUNNY     58  51  78 SE6       30.04S
ELMIRA         SUNNY     58  53  84 CALM      30.03S
ITHACA         SUNNY     63  51  64 CALM      30.05R
MONTICELLO     SUNNY     61  48  63 CALM      30.05R
NORWICH        SUNNY     54  50  87 CALM      30.05S
PENN YAN       SUNNY     61  51  70 SW5       30.03R
ROME           SUNNY     60  51  72 CALM      30.04R
SIDNEY         PTSUNNY   55  55 100 CALM      30.06R
SYRACUSE       MOSUNNY   62  50  64 CALM      30.03R
$$

!PAZ038>040-043-044-047-048-072-031400
...NORTHEAST PENNSYLVANIA...

CITY           SKY/WX    TMP DP  RH WIND       PRES   REMARKS
HAZLETON       SUNNY     63  46  55 NE5       30.07R
SCRANTON       MOSUNNY   65  50  58 N6        30.04R
TOWANDA*       MOSUNNY   63  52  67 MISG      30.05S
$$
&&
KEY
WCI = WIND CHILL INDEX
VSB = VISIBILITY
HX  = HEAT INDEX
$$



USA.gov is the U.S. government's official web portal to all federal, state and local government web resources and services.